This is the latest recevied weather packets stored in our database for station/object N5XJB. If no packets are shown the sender has not sent any weather packets the latest 10 day(s).
| Time | Temp. | Humidity | Pressure | Rain* | Wind** | Luminosity | Snow |
|---|---|---|---|---|---|---|---|
| 1777485251 | 30° C | 67% | 1013.4 hPa | 0 mm | - | 346 W/m² | - |
| 1777484948 | 30.56° C | 67% | 1013.4 hPa | 0 mm | - | 341 W/m² | - |
| 1777484645 | 30° C | 67% | 1013.7 hPa | 0 mm | - | 507 W/m² | - |
| 1777484341 | 30° C | 67% | 1013.7 hPa | 0 mm | - | 451 W/m² | - |
| 1777484037 | 30° C | 68% | 1013.7 hPa | 0 mm | - | 671 W/m² | - |
| 1777483734 | 29.44° C | 67% | 1014.1 hPa | 0 mm | - | 301 W/m² | - |
| 1777483430 | 28.89° C | 69% | 1013.7 hPa | 0 mm | - | 372 W/m² | - |
| 1777483125 | 30° C | 71% | 1014.1 hPa | 0 mm | - | 360 W/m² | - |
| 1777482822 | 30.56° C | 66% | 1014.1 hPa | 0 mm | - | 516 W/m² | - |
| 1777482518 | 30° C | 66% | 1014.1 hPa | 0 mm | - | 579 W/m² | - |
| 1777482216 | 29.44° C | 70% | 1014.1 hPa | 0 mm | - | 966 W/m² | - |
| 1777481913 | 30° C | 72% | 1014.1 hPa | 0 mm | - | 554 W/m² | - |
| 1777481611 | 29.44° C | 73% | 1013.7 hPa | 0 mm | - | 353 W/m² | - |
| 1777481307 | 28.89° C | 71% | 1014.1 hPa | 0 mm | - | 374 W/m² | - |
| 1777481004 | 29.44° C | 70% | 1014.1 hPa | 0 mm | - | 336 W/m² | - |
| 1777480700 | 29.44° C | 73% | 1014.1 hPa | 0 mm | - | 369 W/m² | - |
| 1777480397 | 29.44° C | 72% | 1014.1 hPa | 0 mm | - | 417 W/m² | - |
| 1777480093 | 29.44° C | 73% | 1014.4 hPa | 0 mm | - | 231 W/m² | - |
| 1777479790 | 29.44° C | 72% | 1014.4 hPa | 0 mm | - | 251 W/m² | - |
| 1777479487 | 29.44° C | 74% | 1014.1 hPa | 0 mm | - | 330 W/m² | - |
| 1777479184 | 28.89° C | 73% | 1014.1 hPa | 0 mm | - | 351 W/m² | - |
| 1777478881 | 28.89° C | 74% | 1014.1 hPa | 0 mm | - | 331 W/m² | - |
| 1777478576 | 28.89° C | 75% | 1014.4 hPa | 0 mm | - | 346 W/m² | - |
| 1777478274 | 28.89° C | 75% | 1014.1 hPa | 0 mm | - | 292 W/m² | - |
| 1777477970 | 28.89° C | 74% | 1014.1 hPa | 0 mm | - | 207 W/m² | - |
* Rain latest hour (hover to see other rain measurements)
** Current wind speed in m/s (hover to see current wind gust speed)